Location: Gleizolles
(44.4833°N, 6.7667°E)
Time: 21:58:53
(UTC+00:00)

Tiros 1 despin weight - Pass Details

Date: 03 July 2024
Orbit: 576 x 620 km, 48.2° (Epoch: 19 July)

Event Time Altitude Azimuth Distance (km) Brightness Sun altitude
Rises 09:46:01 0° 271° (W) 2,870 ? 58.6°
Reaches altitude 10° 09:48:21 10° 276° (W) 1,972 ? 59.0°
Maximum altitude 09:52:48 54° 355° (N) 752 ? 59.6°
Drops below altitude 10° 09:57:18 10° 73° (ENE) 1,987 ? 60.3°
Sets 09:59:40 0° 78° (ENE) 2,895 ? 60.6°
